Weather in Amurzet

Russia / Jewish Autonomous Oblast     47°41′36″N   131°05′43″E
temp.,
°C
wind,
m/s
gust,
m/s
humid.,
%
clouds,
%
prec.,
mm/h
press.,
hPa
HPBL,
m
17 may, mon
mon1701:00+13nw22490 0.0 100111
04:00+11wnw11500 0.0 100210
07:00+12sw22535 0.0 100233
10:00+19sw46350 0.0 1001545
13:00+24ssw46270 0.0 10011466
16:00+26w67205 0.0 9993384
19:00+24w593292 0.0 998354
22:00+18wsw344515 0.0 100060
18 may, tue
tue1801:00+16sw36495 0.0 100095
04:00+14sw35565 0.0 100071
07:00+14sw410595 0.0 1000220
10:00+22sw593750 0.0 1001702
13:00+28sw8142191 0.0 9992884
16:00+29sw8142299 0.0 9984310
19:00+26sw7123297 0.0 998612
22:00+16nnw613655 0.1 1002436
19 may, wed
wed1901:00+13nnw3677100 0.0 1003140
04:00+13nnw1175100 0.0 100227
07:00+14nnw237255 0.0 1003134
10:00+18n2257100 0.2 1004600
13:00+22sw23453 0.0 10041513
16:00+25sse463412 0.0 10022470
19:00+24s564290 0.0 1003752
22:00+18ssw335827 0.0 100446
20 may, thu
thu2001:00+16sse11697 0.0 100311
04:00+14nne1186100 0.9 100211
07:00+15sse13800 0.3 1002130
10:00+23sw4752100 0.3 1002625
13:00+27sw573497 0.0 10021573
16:00+29ssw793136 0.0 10012136
19:00+28w510365 0.0 1001467
22:00+18n59743 0.0 1004184
21 may, fri
fri2101:00+16nnw36800 0.0 1005102
04:00+14nnw367698 0.0 1006100
07:00+15nnw376757 0.0 1007198
10:00+22ne35395 0.0 1007727
13:00+25ene443147 0.0 10071347
16:00+27e4441100 0.0 10041796
19:00+25e464084 0.1 1004501
22:00+19e354572 0.1 100563